JST495 YBCG-YWLM

Flight info

Callsign JST495
Flight time 0h 54m
Altitude 36000
Route GOMOL Q16 APAGI H91 SANAD/N0351F190 V779 LAXUM DCT WLM
Aircraft A320/M-SDE3FGHIRWY/LB1

Departure

Time 2026-04-25 10:52
Airport Gold Coast Airport (YBCG)

Arrival

Time 2026-04-25 11:46
Airport Newcastle Airport (YWLM)
Time Latitude Longitude Altitude Speed Heading
2026-04-25 10:44 -28.16696 153.51165 29 ft 0 kts 60°
2026-04-25 10:45 -28.16702 153.51152 31 ft 3 kts 59°
2026-04-25 10:45 -28.16713 153.51133 31 ft 3 kts 54°
2026-04-25 10:45 -28.16725 153.51115 30 ft 3 kts 45°
2026-04-25 10:45 -28.16740 153.51100 28 ft 3 kts 24°
2026-04-25 10:46 -28.16756 153.51096 29 ft 2 kts 338°
2026-04-25 10:46 -28.16763 153.51100 29 ft 1 kts 331°
2026-04-25 10:46 -28.16764 153.51100 29 ft 0 kts 331°
2026-04-25 10:48 -28.16701 153.51060 26 ft 20 kts 330°
2026-04-25 10:49 -28.16571 153.50977 30 ft 23 kts 331°
2026-04-25 10:49 -28.16491 153.50907 26 ft 20 kts 287°
2026-04-25 10:49 -28.16402 153.50764 27 ft 20 kts 330°
2026-04-25 10:49 -28.16273 153.50682 27 ft 23 kts 330°
2026-04-25 10:50 -28.16127 153.50589 27 ft 25 kts 330°
2026-04-25 10:50 -28.15965 153.50486 29 ft 28 kts 330°
2026-04-25 10:50 -28.15786 153.50372 28 ft 31 kts 331°
2026-04-25 10:50 -28.15621 153.50258 30 ft 19 kts 315°
2026-04-25 10:51 -28.15642 153.50126 27 ft 13 kts 236°
2026-04-25 10:51 -28.15742 153.50129 27 ft 25 kts 155°
2026-04-25 10:51 -28.16071 153.50338 26 ft 89 kts 150°
2026-04-25 10:51 -28.16784 153.50790 35 ft 143 kts 151°
2026-04-25 10:52 -28.17644 153.51344 665 ft 139 kts 154°
2026-04-25 10:52 -28.18488 153.51869 1399 ft 137 kts 147°
2026-04-25 10:52 -28.19324 153.52401 2007 ft 143 kts 148°
2026-04-25 10:52 -28.20285 153.52935 2339 ft 166 kts 154°
2026-04-25 10:53 -28.21437 153.53442 2649 ft 189 kts 155°
2026-04-25 10:53 -28.22288 153.53803 2856 ft 206 kts 156°
2026-04-25 10:53 -28.23711 153.54396 3319 ft 230 kts 157°
2026-04-25 10:53 -28.25325 153.54758 4048 ft 248 kts 183°
2026-04-25 10:54 -28.27373 153.53463 5280 ft 269 kts 225°
2026-04-25 10:54 -28.28103 153.52311 5956 ft 274 kts 233°
2026-04-25 10:54 -28.29035 153.50406 6951 ft 278 kts 238°
2026-04-25 10:54 -28.29936 153.48441 7802 ft 284 kts 237°
2026-04-25 10:55 -28.30903 153.46462 8638 ft 289 kts 235°
2026-04-25 10:55 -28.31953 153.44493 9462 ft 295 kts 233°
2026-04-25 10:55 -28.33087 153.42515 10231 ft 304 kts 232°
2026-04-25 10:55 -28.34312 153.40487 10658 ft 322 kts 231°
2026-04-25 10:56 -28.35650 153.38338 10985 ft 342 kts 231°
2026-04-25 10:56 -28.37048 153.36109 11639 ft 350 kts 231°
2026-04-25 10:56 -28.38468 153.33843 12328 ft 355 kts 231°
2026-04-25 10:56 -28.39901 153.31549 13090 ft 358 kts 231°
2026-04-25 10:57 -28.41345 153.29226 13857 ft 362 kts 231°
2026-04-25 10:57 -28.42802 153.26877 14556 ft 366 kts 231°
2026-04-25 10:57 -28.44253 153.24540 15221 ft 368 kts 232°
2026-04-25 10:57 -28.45728 153.22157 15927 ft 369 kts 232°
2026-04-25 10:58 -28.47210 153.19763 16624 ft 371 kts 232°
2026-04-25 10:58 -28.48702 153.17357 17322 ft 374 kts 232°
2026-04-25 10:58 -28.50203 153.14936 18027 ft 376 kts 232°
2026-04-25 10:58 -28.51713 153.12497 18708 ft 378 kts 233°
2026-04-25 10:59 -28.53231 153.10039 19321 ft 381 kts 232°
2026-04-25 10:59 -28.54760 153.07565 19943 ft 383 kts 232°
2026-04-25 10:59 -28.56299 153.05078 20585 ft 386 kts 232°
2026-04-25 10:59 -28.57845 153.02575 21208 ft 388 kts 233°
2026-04-25 11:00 -28.59404 153.00047 21808 ft 391 kts 232°
2026-04-25 11:00 -28.60968 152.97514 22402 ft 393 kts 233°
2026-04-25 11:00 -28.62544 152.94957 23004 ft 396 kts 232°
2026-04-25 11:00 -28.64133 152.92376 23589 ft 399 kts 232°
2026-04-25 11:01 -28.65732 152.89783 24118 ft 402 kts 232°
2026-04-25 11:01 -28.67342 152.87165 24588 ft 405 kts 232°
2026-04-25 11:01 -28.68963 152.84526 25080 ft 407 kts 232°
2026-04-25 11:01 -28.70590 152.81879 25549 ft 409 kts 231°
2026-04-25 11:02 -28.72223 152.79221 26050 ft 410 kts 231°
2026-04-25 11:02 -28.73859 152.76561 26540 ft 412 kts 231°
2026-04-25 11:02 -28.75506 152.73877 27001 ft 413 kts 231°
2026-04-25 11:02 -28.77154 152.71184 27447 ft 415 kts 231°
2026-04-25 11:03 -28.78810 152.68479 27892 ft 417 kts 231°
2026-04-25 11:03 -28.80469 152.65769 28337 ft 419 kts 231°
2026-04-25 11:03 -28.82139 152.63039 28768 ft 420 kts 231°
2026-04-25 11:03 -28.83916 152.60450 29186 ft 419 kts 223°
2026-04-25 11:04 -28.86050 152.58207 29598 ft 417 kts 214°
2026-04-25 11:04 -28.88467 152.56405 30022 ft 415 kts 205°
2026-04-25 11:04 -28.91034 152.54892 30437 ft 416 kts 204°
2026-04-25 11:04 -28.92773 152.53866 30675 ft 418 kts 205°
2026-04-25 11:05 -28.96197 152.51830 31129 ft 420 kts 204°
2026-04-25 11:05 -28.98780 152.50287 31562 ft 419 kts 204°
2026-04-25 11:05 -29.01361 152.48744 31947 ft 419 kts 204°
2026-04-25 11:05 -29.03950 152.47196 32303 ft 420 kts 204°
2026-04-25 11:06 -29.06527 152.45654 32779 ft 418 kts 204°
2026-04-25 11:06 -29.09101 152.44117 33269 ft 416 kts 204°
2026-04-25 11:06 -29.11656 152.42591 33736 ft 414 kts 204°
2026-04-25 11:06 -29.14205 152.41072 34227 ft 412 kts 204°
2026-04-25 11:07 -29.16745 152.39558 34668 ft 411 kts 204°
2026-04-25 11:07 -29.19275 152.38050 35067 ft 409 kts 204°
2026-04-25 11:07 -29.21798 152.36547 35448 ft 408 kts 205°
2026-04-25 11:07 -29.24312 152.35043 35824 ft 408 kts 205°
2026-04-25 11:08 -29.26820 152.33539 36173 ft 407 kts 205°
2026-04-25 11:08 -29.29333 152.32030 36337 ft 407 kts 205°
2026-04-25 11:08 -29.31830 152.30531 36375 ft 403 kts 205°
2026-04-25 11:09 -29.36786 152.27555 36372 ft 402 kts 205°
2026-04-25 11:09 -29.41731 152.24584 36377 ft 401 kts 205°
2026-04-25 11:10 -29.46638 152.21639 36379 ft 401 kts 205°
2026-04-25 11:10 -29.51577 152.18675 36380 ft 401 kts 205°
2026-04-25 11:11 -29.56516 152.15701 36380 ft 401 kts 203°
2026-04-25 11:11 -29.61819 152.13442 36382 ft 413 kts 197°
2026-04-25 11:12 -29.67289 152.11246 36383 ft 418 kts 197°
2026-04-25 11:12 -29.72787 152.09041 36390 ft 419 kts 197°
2026-04-25 11:13 -29.78293 152.06831 36391 ft 420 kts 197°
2026-04-25 11:13 -29.83811 152.04618 36393 ft 420 kts 197°
2026-04-25 11:14 -29.89330 152.02396 36393 ft 420 kts 197°
2026-04-25 11:14 -29.94850 152.00165 36395 ft 420 kts 197°
2026-04-25 11:15 -30.00339 151.97956 36395 ft 421 kts 197°
2026-04-25 11:15 -30.05871 151.95718 36398 ft 422 kts 197°
2026-04-25 11:16 -30.14178 151.92346 36388 ft 422 kts 197°
2026-04-25 11:16 -30.19716 151.90109 36413 ft 422 kts 197°
2026-04-25 11:17 -30.25259 151.87864 36415 ft 422 kts 197°
2026-04-25 11:17 -30.30802 151.85609 36422 ft 422 kts 197°
2026-04-25 11:18 -30.36348 151.83352 36425 ft 422 kts 197°
2026-04-25 11:18 -30.41889 151.81096 36426 ft 422 kts 197°
2026-04-25 11:19 -30.47428 151.78836 36404 ft 422 kts 198°
2026-04-25 11:19 -30.52934 151.76586 36404 ft 423 kts 198°
2026-04-25 11:20 -30.58482 151.74319 36400 ft 423 kts 198°
2026-04-25 11:20 -30.64034 151.72042 36402 ft 423 kts 198°
2026-04-25 11:21 -30.69592 151.69772 36403 ft 424 kts 197°
2026-04-25 11:21 -30.75166 151.67495 36399 ft 425 kts 198°
2026-04-25 11:22 -30.79799 151.65588 36401 ft 425 kts 198°
2026-04-25 11:22 -30.86315 151.62905 36398 ft 425 kts 198°
2026-04-25 11:23 -30.91878 151.60611 35638 ft 421 kts 197°
2026-04-25 11:23 -30.94628 151.59475 34586 ft 418 kts 197°
2026-04-25 11:23 -30.97305 151.58367 33945 ft 406 kts 197°
2026-04-25 11:24 -30.99984 151.57260 33505 ft 403 kts 197°
2026-04-25 11:24 -31.02574 151.56191 33027 ft 399 kts 197°
2026-04-25 11:24 -31.05172 151.55117 32577 ft 394 kts 197°
2026-04-25 11:24 -31.07745 151.54054 32114 ft 390 kts 197°
2026-04-25 11:25 -31.10294 151.53000 31659 ft 387 kts 197°
2026-04-25 11:25 -31.12814 151.51959 31206 ft 384 kts 197°
2026-04-25 11:25 -31.15321 151.50922 30767 ft 381 kts 197°
2026-04-25 11:25 -31.17815 151.49887 30299 ft 378 kts 197°
2026-04-25 11:26 -31.20288 151.48860 29841 ft 376 kts 197°
2026-04-25 11:26 -31.22746 151.47841 29432 ft 374 kts 197°
2026-04-25 11:26 -31.25194 151.46828 29020 ft 372 kts 197°
2026-04-25 11:26 -31.27628 151.45818 28610 ft 371 kts 197°
2026-04-25 11:27 -31.30054 151.44809 28206 ft 369 kts 197°
2026-04-25 11:27 -31.32473 151.43803 27811 ft 368 kts 196°
2026-04-25 11:27 -31.34881 151.42803 27415 ft 367 kts 195°
2026-04-25 11:27 -31.36498 151.42259 27168 ft 364 kts 189°
2026-04-25 11:28 -31.39808 151.41913 26663 ft 359 kts 175°
2026-04-25 11:28 -31.42300 151.42302 26259 ft 355 kts 165°
2026-04-25 11:28 -31.44663 151.42993 25879 ft 354 kts 165°
2026-04-25 11:28 -31.47054 151.43688 25479 ft 353 kts 165°
2026-04-25 11:29 -31.49434 151.44375 25074 ft 352 kts 165°
2026-04-25 11:29 -31.51804 151.45061 24664 ft 350 kts 164°
2026-04-25 11:29 -31.54168 151.45747 24250 ft 350 kts 164°
2026-04-25 11:29 -31.56526 151.46429 23801 ft 348 kts 164°
2026-04-25 11:30 -31.58876 151.47107 23343 ft 347 kts 164°
2026-04-25 11:30 -31.61214 151.47782 22915 ft 345 kts 164°
2026-04-25 11:30 -31.63542 151.48458 22486 ft 344 kts 164°
2026-04-25 11:30 -31.65859 151.49135 22055 ft 342 kts 164°
2026-04-25 11:31 -31.68164 151.49807 21620 ft 341 kts 164°
2026-04-25 11:31 -31.70466 151.50476 21190 ft 340 kts 164°
2026-04-25 11:31 -31.72753 151.51141 20757 ft 338 kts 164°
2026-04-25 11:31 -31.75033 151.51804 20327 ft 337 kts 164°
2026-04-25 11:32 -31.77309 151.52467 19894 ft 337 kts 164°
2026-04-25 11:32 -31.79650 151.53153 19444 ft 354 kts 165°
2026-04-25 11:32 -31.82058 151.53863 18977 ft 358 kts 164°
2026-04-25 11:32 -31.84470 151.54582 18481 ft 358 kts 164°
2026-04-25 11:33 -31.86876 151.55303 17997 ft 355 kts 164°
2026-04-25 11:33 -31.89229 151.56008 17541 ft 352 kts 164°
2026-04-25 11:33 -31.91598 151.56714 17083 ft 350 kts 164°
2026-04-25 11:33 -31.93951 151.57416 16626 ft 348 kts 164°
2026-04-25 11:34 -31.96291 151.58116 16172 ft 346 kts 164°
2026-04-25 11:34 -31.98616 151.58813 15719 ft 344 kts 164°
2026-04-25 11:34 -32.00929 151.59507 15275 ft 342 kts 163°
2026-04-25 11:34 -32.03228 151.60199 14821 ft 340 kts 163°
2026-04-25 11:35 -32.05513 151.60887 14384 ft 338 kts 163°
2026-04-25 11:35 -32.07784 151.61570 13920 ft 336 kts 163°
2026-04-25 11:35 -32.10045 151.62251 13474 ft 334 kts 163°
2026-04-25 11:35 -32.12295 151.62928 13036 ft 332 kts 163°
2026-04-25 11:36 -32.14527 151.63596 12582 ft 331 kts 163°
2026-04-25 11:36 -32.16749 151.64262 12173 ft 328 kts 163°
2026-04-25 11:36 -32.18953 151.64926 11759 ft 326 kts 163°
2026-04-25 11:36 -32.21147 151.65588 11327 ft 324 kts 163°
2026-04-25 11:37 -32.23321 151.66246 10913 ft 322 kts 163°
2026-04-25 11:37 -32.25475 151.66896 10301 ft 319 kts 163°
2026-04-25 11:37 -32.27607 151.67539 9669 ft 314 kts 163°
2026-04-25 11:37 -32.29736 151.68181 9240 ft 315 kts 163°
2026-04-25 11:38 -32.31847 151.68817 8836 ft 312 kts 163°
2026-04-25 11:38 -32.33988 151.69176 8432 ft 312 kts 176°
2026-04-25 11:38 -32.36157 151.69230 8022 ft 310 kts 176°
2026-04-25 11:38 -32.38310 151.69283 7624 ft 309 kts 176°
2026-04-25 11:39 -32.40457 151.69337 7229 ft 308 kts 176°
2026-04-25 11:39 -32.42563 151.69390 6832 ft 306 kts 176°
2026-04-25 11:39 -32.44711 151.69448 6412 ft 304 kts 176°
2026-04-25 11:39 -32.46790 151.69507 6016 ft 302 kts 177°
2026-04-25 11:40 -32.48888 151.69567 5627 ft 301 kts 177°
2026-04-25 11:40 -32.50976 151.69627 5242 ft 299 kts 176°
2026-04-25 11:40 -32.53049 151.69683 4843 ft 297 kts 176°
2026-04-25 11:40 -32.55114 151.69737 4453 ft 296 kts 176°
2026-04-25 11:41 -32.57171 151.69791 4066 ft 296 kts 176°
2026-04-25 11:41 -32.59201 151.70056 3681 ft 291 kts 163°
2026-04-25 11:41 -32.61054 151.70818 3345 ft 273 kts 156°
2026-04-25 11:41 -32.62747 151.71569 3274 ft 248 kts 156°
2026-04-25 11:42 -32.64298 151.72248 3182 ft 227 kts 156°
2026-04-25 11:42 -32.65715 151.72869 3087 ft 207 kts 155°
2026-04-25 11:42 -32.67040 151.73452 2847 ft 201 kts 155°
2026-04-25 11:42 -32.68345 151.74029 2531 ft 199 kts 155°
2026-04-25 11:43 -32.69624 151.74593 2264 ft 192 kts 155°
2026-04-25 11:43 -32.70836 151.75124 2014 ft 180 kts 155°
2026-04-25 11:43 -32.71977 151.75625 1784 ft 169 kts 155°
2026-04-25 11:43 -32.73009 151.76072 1580 ft 150 kts 156°
2026-04-25 11:44 -32.73963 151.76493 1382 ft 143 kts 153°
2026-04-25 11:44 -32.74815 151.77062 1203 ft 139 kts 140°
2026-04-25 11:44 -32.75529 151.77813 1020 ft 136 kts 128°
2026-04-25 11:44 -32.76140 151.78665 923 ft 136 kts 128°
2026-04-25 11:45 -32.76754 151.79509 730 ft 136 kts 129°
2026-04-25 11:45 -32.77371 151.80356 536 ft 135 kts 129°
2026-04-25 11:45 -32.77968 151.81212 310 ft 134 kts 128°
2026-04-25 11:45 -32.78565 151.82061 100 ft 134 kts 130°
2026-04-25 11:46 -32.79155 151.82874 34 ft 116 kts 130°
2026-04-25 11:46 -32.79567 151.83451 29 ft 67 kts 131°
2026-04-25 11:46 -32.79766 151.83727 31 ft 29 kts 130°
2026-04-25 11:46 -32.79906 151.83850 33 ft 26 kts 173°
2026-04-25 11:47 -32.80095 151.83823 32 ft 29 kts 188°
2026-04-25 11:47 -32.80247 151.83934 30 ft 26 kts 132°
2026-04-25 11:47 -32.80286 151.83987 30 ft 8 kts 131°
2026-04-25 11:47 -32.80331 151.84049 29 ft 12 kts 130°
2026-04-25 11:48 -32.80370 151.84045 28 ft 2 kts 250°
2026-04-25 11:48 -32.80372 151.84034 29 ft 1 kts 254°
2026-04-25 11:48 -32.80373 151.84029 29 ft 0 kts 254°